Time,TemperatureF,DewpointF,PressureIn,WindDirection,WindDirectionDegrees,WindSpeedMPH,WindSpeedGustMPH,Humidity,HourlyPrecipIn,Conditions,Clouds,dailyrainin,SoftwareType,DateUTC
2013-01-22 00:04:00,24.4,7.1,29.35,WSW,239,0.0,0.0,47,0.00,,---,0.00,VWS V13.01,2013-01-22 05:04:00,
2013-01-22 00:09:00,24.1,6.8,29.35,WSW,238,0.0,0.0,47,0.00,,---,0.00,VWS V13.01,2013-01-22 05:09:00,
2013-01-22 00:14:00,23.7,6.0,29.32,WSW,238,0.0,0.0,46,0.00,,---,0.00,VWS V13.01,2013-01-22 05:14:00,
2013-01-22 00:19:00,23.5,5.8,29.32,WSW,238,0.0,0.0,46,0.00,,---,0.00,VWS V13.01,2013-01-22 05:19:00,
2013-01-22 00:24:00,22.8,5.2,29.32,WSW,239,0.0,0.0,46,0.00,,---,0.00,VWS V13.01,2013-01-22 05:24:00,
2013-01-22 00:29:00,22.5,4.8,29.32,WSW,238,0.0,0.0,46,0.00,,---,0.00,VWS V13.01,2013-01-22 05:29:00,
2013-01-22 00:34:00,22.1,5.0,29.32,WSW,238,4.9,4.9,47,0.00,,---,0.00,VWS V13.01,2013-01-22 05:34:00,
2013-01-22 00:39:00,22.1,5.4,29.32,WSW,238,2.7,4.9,48,0.00,,---,0.00,VWS V13.01,2013-01-22 05:39:00,
2013-01-22 00:44:00,22.1,5.4,29.32,WSW,239,3.6,4.0,48,0.00,,---,0.00,VWS V13.01,2013-01-22 05:44:00,
2013-01-22 00:49:00,21.9,5.2,29.32,WSW,238,3.6,4.9,48,0.00,,---,0.00,VWS V13.01,2013-01-22 05:49:00,
2013-01-22 00:54:00,22.1,5.0,29.32,SSE,167,4.0,7.6,47,0.00,,---,0.00,VWS V13.01,2013-01-22 05:54:00,
2013-01-22 00:59:00,22.3,4.7,29.32,ESE,119,2.7,5.4,46,0.00,,---,0.00,VWS V13.01,2013-01-22 05:59:00,
2013-01-22 01:09:00,22.6,3.0,29.32,SE,140,2.7,8.3,42,0.00,,---,0.00,VWS V13.01,2013-01-22 06:09:00,
2013-01-22 01:14:00,22.8,3.2,29.32,South,183,4.0,6.3,42,0.00,,---,0.00,VWS V13.01,2013-01-22 06:14:00,
2013-01-22 01:19:00,22.8,2.1,29.32,South,179,3.1,5.8,40,0.00,,---,0.00,VWS V13.01,2013-01-22 06:19:00,
2013-01-22 01:24:00,22.8,1.6,29.32,SSE,148,6.3,8.1,39,0.00,,---,0.00,VWS V13.01,2013-01-22 06:24:00,
2013-01-22 01:34:00,22.8,-0.1,29.32,SE,139,5.4,8.3,36,0.00,,---,0.00,VWS V13.01,2013-01-22 06:34:00,
2013-01-22 01:39:00,22.8,-0.1,29.32,South,170,3.6,8.7,36,0.00,,---,0.00,VWS V13.01,2013-01-22 06:39:00,
2013-01-22 01:44:00,22.8,-0.7,29.32,South,182,5.8,6.3,35,0.00,,---,0.00,VWS V13.01,2013-01-22 06:44:00,
2013-01-22 01:49:00,22.8,-0.7,29.32,SSW,209,4.0,5.8,35,0.00,,---,0.00,VWS V13.01,2013-01-22 06:49:00,
2013-01-22 01:54:00,22.6,-1.5,29.32,SSW,198,3.1,8.1,34,0.00,,---,0.00,VWS V13.01,2013-01-22 06:54:00,
2013-01-22 01:59:00,22.6,-1.5,29.32,SSW,211,6.3,8.7,34,0.00,,---,0.00,VWS V13.01,2013-01-22 06:59:00,
2013-01-22 02:04:00,22.6,-1.5,29.32,South,177,3.6,8.1,34,0.00,,---,0.00,VWS V13.01,2013-01-22 07:04:00,
2013-01-22 02:09:00,22.6,-2.1,29.32,South,171,4.0,8.7,33,0.00,,---,0.00,VWS V13.01,2013-01-22 07:09:00,
2013-01-22 02:14:00,22.5,-2.3,29.32,South,183,2.7,6.3,33,0.00,,---,0.00,VWS V13.01,2013-01-22 07:14:00,
2013-01-22 02:19:00,22.3,-2.4,29.32,South,173,3.1,6.3,33,0.00,,---,0.00,VWS V13.01,2013-01-22 07:19:00,
2013-01-22 02:24:00,22.3,-2.4,29.32,SE,130,6.3,6.3,33,0.00,,---,0.00,VWS V13.01,2013-01-22 07:24:00,
2013-01-22 02:29:00,22.1,-2.6,29.35,SW,222,8.1,8.3,33,0.00,,---,0.00,VWS V13.01,2013-01-22 07:29:00,
2013-01-22 02:34:00,22.1,-2.6,29.35,South,183,5.4,8.1,33,0.00,,---,0.00,VWS V13.01,2013-01-22 07:34:00,
2013-01-22 02:39:00,22.1,-2.6,29.35,South,175,5.8,8.7,33,0.00,,---,0.00,VWS V13.01,2013-01-22 07:39:00,
2013-01-22 02:44:00,22.1,-2.6,29.35,SE,142,3.6,10.1,33,0.00,,---,0.00,VWS V13.01,2013-01-22 07:44:00,
2013-01-22 02:49:00,21.9,-2.8,29.35,SSE,166,6.7,7.6,33,0.00,,---,0.00,VWS V13.01,2013-01-22 07:49:00,
2013-01-22 02:54:00,21.9,-2.8,29.35,SSE,168,6.3,8.7,33,0.00,,---,0.00,VWS V13.01,2013-01-22 07:54:00,
2013-01-22 02:59:00,21.9,-3.4,29.35,SSW,197,9.2,9.2,32,0.00,,---,0.00,VWS V13.01,2013-01-22 07:59:00,
2013-01-22 03:04:00,21.9,-3.4,29.35,South,176,4.0,10.1,32,0.00,,---,0.00,VWS V13.01,2013-01-22 08:04:00,
2013-01-22 03:09:00,21.7,-3.6,29.35,South,173,5.4,6.3,32,0.00,,---,0.00,VWS V13.01,2013-01-22 08:09:00,
2013-01-22 03:14:00,21.7,-3.6,29.35,SSE,167,8.1,10.1,32,0.00,,---,0.00,VWS V13.01,2013-01-22 08:14:00,
2013-01-22 03:19:00,21.7,-3.6,29.35,SSE,163,4.0,8.1,32,0.00,,---,0.00,VWS V13.01,2013-01-22 08:19:00,
2013-01-22 03:24:00,21.9,-3.4,29.35,SSE,158,3.6,8.3,32,0.00,,---,0.00,VWS V13.01,2013-01-22 08:24:00,
2013-01-22 03:29:00,21.9,-3.4,29.35,WNW,289,5.8,7.2,32,0.00,,---,0.00,VWS V13.01,2013-01-22 08:29:00,
2013-01-22 03:34:00,21.7,-3.6,29.35,SSE,164,3.1,6.3,32,0.00,,---,0.00,VWS V13.01,2013-01-22 08:34:00,
2013-01-22 03:44:00,21.7,-3.6,29.35,SSW,213,4.9,5.4,32,0.00,,---,0.00,VWS V13.01,2013-01-22 08:44:00,
2013-01-22 03:49:00,21.7,-3.6,29.35,South,190,4.9,6.3,32,0.00,,---,0.00,VWS V13.01,2013-01-22 08:49:00,
2013-01-22 03:54:00,21.6,-3.7,29.35,South,171,8.3,8.7,32,0.00,,---,0.00,VWS V13.01,2013-01-22 08:54:00,
2013-01-22 03:59:00,21.6,-3.7,29.35,SSE,168,3.6,8.3,32,0.00,,---,0.00,VWS V13.01,2013-01-22 08:59:00,
2013-01-22 04:04:00,21.6,-3.1,29.35,SSE,165,3.1,5.8,33,0.00,,---,0.00,VWS V13.01,2013-01-22 09:04:00,
2013-01-22 04:09:00,21.6,-3.1,29.35,South,181,4.9,6.3,33,0.00,,---,0.00,VWS V13.01,2013-01-22 09:09:00,
2013-01-22 04:14:00,21.7,-3.6,29.35,SSW,212,3.6,8.3,32,0.00,,---,0.00,VWS V13.01,2013-01-22 09:14:00,
2013-01-22 04:19:00,21.6,-3.7,29.35,South,188,3.6,8.3,32,0.00,,---,0.00,VWS V13.01,2013-01-22 09:19:00,
2013-01-22 04:24:00,21.6,-3.7,29.35,South,181,5.4,5.8,32,0.00,,---,0.00,VWS V13.01,2013-01-22 09:24:00,
2013-01-22 04:29:00,21.4,-3.9,29.35,South,190,3.6,5.8,32,0.00,,---,0.00,VWS V13.01,2013-01-22 09:29:00,
2013-01-22 04:34:00,21.2,-3.4,29.35,SSW,201,3.6,9.6,33,0.00,,---,0.00,VWS V13.01,2013-01-22 09:34:00,
2013-01-22 04:39:00,21.2,-3.4,29.35,SSW,203,10.1,13.2,33,0.00,,---,0.00,VWS V13.01,2013-01-22 09:39:00,
2013-01-22 04:44:00,21.2,-3.4,29.35,South,176,5.8,11.0,33,0.00,,---,0.00,VWS V13.01,2013-01-22 09:44:00,
2013-01-22 04:49:00,21.0,-3.6,29.35,SSE,157,4.0,6.3,33,0.00,,---,0.00,VWS V13.01,2013-01-22 09:49:00,
2013-01-22 04:54:00,20.8,-3.7,29.35,SE,133,5.8,7.6,33,0.00,,---,0.00,VWS V13.01,2013-01-22 09:54:00,
2013-01-22 04:59:00,20.8,-3.7,29.38,SSE,150,5.8,7.6,33,0.00,,---,0.00,VWS V13.01,2013-01-22 09:59:00,
2013-01-22 05:04:00,20.7,-3.9,29.38,South,169,5.8,8.3,33,0.00,,---,0.00,VWS V13.01,2013-01-22 10:04:00,
2013-01-22 05:09:00,20.5,-4.0,29.38,South,172,11.0,11.0,33,0.00,,---,0.00,VWS V13.01,2013-01-22 10:09:00,
2013-01-22 05:14:00,20.5,-4.0,29.38,SW,214,5.4,11.0,33,0.00,,---,0.00,VWS V13.01,2013-01-22 10:14:00,
2013-01-22 05:19:00,20.5,-4.0,29.38,South,187,4.0,11.0,33,0.00,,---,0.00,VWS V13.01,2013-01-22 10:19:00,
2013-01-22 05:29:00,20.3,-4.2,29.41,South,180,4.0,11.0,33,0.00,,---,0.00,VWS V13.01,2013-01-22 10:29:00,
2013-01-22 05:34:00,20.3,-4.2,29.41,SSE,160,5.8,7.6,33,0.00,,---,0.00,VWS V13.01,2013-01-22 10:34:00,
2013-01-22 05:39:00,20.3,-3.6,29.41,SSW,206,4.9,11.0,34,0.00,,---,0.00,VWS V13.01,2013-01-22 10:39:00,
2013-01-22 05:44:00,20.5,-3.4,29.41,South,179,6.3,14.1,34,0.00,,---,0.00,VWS V13.01,2013-01-22 10:44:00,
2013-01-22 05:49:00,20.5,-3.4,29.41,SSW,203,8.3,11.0,34,0.00,,---,0.00,VWS V13.01,2013-01-22 10:49:00,
2013-01-22 05:54:00,20.7,-3.3,29.41,SSE,168,5.8,9.6,34,0.00,,---,0.00,VWS V13.01,2013-01-22 10:54:00,
2013-01-22 05:59:00,20.7,-3.3,29.41,West,274,6.3,10.5,34,0.00,,---,0.00,VWS V13.01,2013-01-22 10:59:00,
2013-01-22 06:04:00,20.7,-3.3,29.41,SW,228,4.0,7.2,34,0.00,,---,0.00,VWS V13.01,2013-01-22 11:04:00,
2013-01-22 06:09:00,20.7,-2.7,29.41,West,262,2.7,8.7,35,0.00,,---,0.00,VWS V13.01,2013-01-22 11:09:00,
2013-01-22 06:14:00,20.7,-1.5,29.44,SSW,209,6.3,10.5,37,0.00,,---,0.00,VWS V13.01,2013-01-22 11:14:00,
2013-01-22 06:19:00,20.7,-2.7,29.44,SSW,194,5.8,6.3,35,0.00,,---,0.00,VWS V13.01,2013-01-22 11:19:00,
2013-01-22 06:24:00,20.5,-2.8,29.44,South,190,4.0,8.7,35,0.00,,---,0.00,VWS V13.01,2013-01-22 11:24:00,
2013-01-22 06:29:00,20.5,-3.4,29.44,SSW,195,4.9,10.1,34,0.00,,---,0.00,VWS V13.01,2013-01-22 11:29:00,
2013-01-22 06:34:00,20.3,-3.6,29.44,West,259,2.7,8.7,34,0.00,,---,0.00,VWS V13.01,2013-01-22 11:34:00,
2013-01-22 06:39:00,20.3,-3.6,29.44,SW,236,3.1,5.8,34,0.00,,---,0.00,VWS V13.01,2013-01-22 11:39:00,
2013-01-22 06:44:00,20.3,-3.6,29.44,SSW,208,5.4,7.2,34,0.00,,---,0.00,VWS V13.01,2013-01-22 11:44:00,
2013-01-22 06:49:00,20.1,-4.4,29.44,SW,227,4.9,8.1,33,0.00,,---,0.00,VWS V13.01,2013-01-22 11:49:00,
2013-01-22 06:54:00,20.1,-5.0,29.44,SSE,156,8.3,10.1,32,0.00,,---,0.00,VWS V13.01,2013-01-22 11:54:00,
2013-01-22 06:59:00,19.8,-3.5,29.44,WSW,245,3.1,11.9,35,0.00,,---,0.00,VWS V13.01,2013-01-22 11:59:00,
2013-01-22 07:04:00,19.4,-3.8,29.44,SSW,197,4.0,7.6,35,0.00,,---,0.00,VWS V13.01,2013-01-22 12:04:00,
2013-01-22 07:09:00,19.4,-5.0,29.44,SSW,200,6.3,8.3,33,0.00,,---,0.00,VWS V13.01,2013-01-22 12:09:00,
2013-01-22 07:14:00,19.4,-7.0,29.44,SSW,202,3.6,9.6,30,0.00,,---,0.00,VWS V13.01,2013-01-22 12:14:00,
2013-01-22 07:24:00,19.2,-7.1,29.44,SSW,194,6.3,10.1,30,0.00,,---,0.00,VWS V13.01,2013-01-22 12:24:00,
2013-01-22 07:29:00,19.2,-7.1,29.44,South,182,4.9,10.1,30,0.00,,---,0.00,VWS V13.01,2013-01-22 12:29:00,
2013-01-22 07:34:00,19.2,-7.1,29.44,South,180,5.4,10.1,30,0.00,,---,0.00,VWS V13.01,2013-01-22 12:34:00,
2013-01-22 07:39:00,19.4,-7.0,29.44,South,179,3.6,8.7,30,0.00,,---,0.00,VWS V13.01,2013-01-22 12:39:00,
2013-01-22 07:44:00,19.6,-6.8,29.47,South,175,2.7,5.8,30,0.00,,---,0.00,VWS V13.01,2013-01-22 12:44:00,
2013-01-22 07:49:00,19.6,-9.0,29.47,South,190,4.0,8.7,27,0.00,,---,0.00,VWS V13.01,2013-01-22 12:49:00,
2013-01-22 07:54:00,19.9,-8.6,29.47,South,170,4.9,8.3,27,0.00,,---,0.00,VWS V13.01,2013-01-22 12:54:00,
2013-01-22 07:59:00,19.9,-8.6,29.47,SSE,162,8.7,8.7,27,0.00,,---,0.00,VWS V13.01,2013-01-22 12:59:00,
2013-01-22 08:05:00,20.1,-8.5,29.47,South,175,8.1,15.0,27,0.00,,---,0.00,VWS V13.01,2013-01-22 13:05:00,
2013-01-22 08:09:00,20.1,-8.5,29.47,SSE,164,5.8,13.2,27,0.00,,---,0.00,VWS V13.01,2013-01-22 13:09:00,
2013-01-22 08:14:00,19.9,-10.2,29.47,SE,127,6.3,11.0,25,0.00,,---,0.00,VWS V13.01,2013-01-22 13:14:00,
2013-01-22 08:24:00,20.1,-10.1,29.47,SSE,150,8.1,14.1,25,0.00,,---,0.00,VWS V13.01,2013-01-22 13:24:00,
2013-01-22 08:29:00,20.3,-9.9,29.47,South,186,3.6,15.0,25,0.00,,---,0.00,VWS V13.01,2013-01-22 13:29:00,
2013-01-22 08:34:00,20.3,-9.9,29.47,South,181,8.3,13.2,25,0.00,,---,0.00,VWS V13.01,2013-01-22 13:34:00,
2013-01-22 08:39:00,20.7,-9.6,29.47,SSW,196,11.0,11.0,25,0.00,,---,0.00,VWS V13.01,2013-01-22 13:39:00,
2013-01-22 08:44:00,20.7,-9.6,29.50,SW,214,5.8,17.0,25,0.00,,---,0.00,VWS V13.01,2013-01-22 13:44:00,
2013-01-22 08:49:00,20.7,-9.6,29.50,SSE,154,4.9,17.9,25,0.00,,---,0.00,VWS V13.01,2013-01-22 13:49:00,
2013-01-22 08:54:00,20.7,-9.6,29.50,WNW,283,8.3,15.4,25,0.00,,---,0.00,VWS V13.01,2013-01-22 13:54:00,
2013-01-22 08:59:00,20.5,-9.7,29.50,SSE,162,4.9,15.4,25,0.00,,---,0.00,VWS V13.01,2013-01-22 13:59:00,
2013-01-22 09:04:00,20.3,-9.9,29.50,SW,226,7.6,13.2,25,0.00,,---,0.00,VWS V13.01,2013-01-22 14:04:00,
2013-01-22 09:14:00,20.7,-9.6,29.50,South,180,4.0,11.4,25,0.00,,---,0.00,VWS V13.01,2013-01-22 14:14:00,
2013-01-22 09:19:00,21.0,-9.3,29.50,South,179,4.9,8.7,25,0.00,,---,0.00,VWS V13.01,2013-01-22 14:19:00,
2013-01-22 09:24:00,21.2,-9.1,29.50,SE,146,8.7,16.3,25,0.00,,---,0.00,VWS V13.01,2013-01-22 14:24:00,
2013-01-22 09:29:00,21.2,-9.1,29.53,South,177,6.3,13.6,25,0.00,,---,0.00,VWS V13.01,2013-01-22 14:29:00,
2013-01-22 09:34:00,21.0,-9.3,29.53,South,176,8.1,20.6,25,0.00,,---,0.00,VWS V13.01,2013-01-22 14:34:00,
2013-01-22 09:39:00,20.8,-9.4,29.53,SSE,168,6.3,15.0,25,0.00,,---,0.00,VWS V13.01,2013-01-22 14:39:00,
2013-01-22 09:49:00,20.8,-9.4,29.53,SSW,207,14.1,21.9,25,0.00,,---,0.00,VWS V13.01,2013-01-22 14:49:00,
2013-01-22 09:54:00,20.8,-9.4,29.53,SSE,162,8.3,18.8,25,0.00,,---,0.00,VWS V13.01,2013-01-22 14:54:00,
2013-01-22 09:59:00,21.0,-9.3,29.56,SSW,200,12.8,16.3,25,0.00,,---,0.00,VWS V13.01,2013-01-22 14:59:00,
2013-01-22 10:04:00,21.2,-9.1,29.56,South,188,13.2,14.1,25,0.00,,---,0.00,VWS V13.01,2013-01-22 15:04:00,
2013-01-22 10:14:00,21.4,-9.0,29.56,South,175,8.7,17.4,25,0.00,,---,0.00,VWS V13.01,2013-01-22 15:14:00,
2013-01-22 10:19:00,21.4,-9.0,29.56,South,182,15.0,21.5,25,0.00,,---,0.00,VWS V13.01,2013-01-22 15:19:00,
2013-01-22 10:24:00,21.0,-9.3,29.56,SSE,167,8.7,21.0,25,0.00,,---,0.00,VWS V13.01,2013-01-22 15:24:00,
2013-01-22 10:29:00,21.4,-9.0,29.56,SW,217,6.3,15.0,25,0.00,,---,0.00,VWS V13.01,2013-01-22 15:29:00,
2013-01-22 10:34:00,21.6,-8.8,29.56,South,179,9.6,13.2,25,0.00,,---,0.00,VWS V13.01,2013-01-22 15:34:00,
2013-01-22 10:39:00,21.6,-8.8,29.56,SSE,166,5.8,12.8,25,0.00,,---,0.00,VWS V13.01,2013-01-22 15:39:00,
2013-01-22 10:44:00,21.4,-9.0,29.56,SSE,158,6.7,15.4,25,0.00,,---,0.00,VWS V13.01,2013-01-22 15:44:00,
2013-01-22 10:49:00,21.7,-8.6,29.56,South,169,12.3,15.9,25,0.00,,---,0.00,VWS V13.01,2013-01-22 15:49:00,
2013-01-22 10:54:00,21.9,-8.5,29.56,SSW,195,14.5,14.5,25,0.00,,---,0.00,VWS V13.01,2013-01-22 15:54:00,
2013-01-22 10:59:00,21.9,-8.5,29.56,SSE,168,7.2,15.9,25,0.00,,---,0.00,VWS V13.01,2013-01-22 15:59:00,
2013-01-22 11:04:00,21.9,-8.5,29.56,South,173,6.3,15.0,25,0.00,,---,0.00,VWS V13.01,2013-01-22 16:04:00,
2013-01-22 11:14:00,22.3,-8.2,29.56,SSW,192,13.6,15.4,25,0.00,,---,0.00,VWS V13.01,2013-01-22 16:14:00,
2013-01-22 11:19:00,21.9,-8.5,29.56,SSW,192,6.7,14.5,25,0.00,,---,0.00,VWS V13.01,2013-01-22 16:19:00,
2013-01-22 11:24:00,21.9,-8.5,29.56,SSE,160,8.1,14.1,25,0.00,,---,0.00,VWS V13.01,2013-01-22 16:24:00,
2013-01-22 11:29:00,22.1,-8.3,29.56,South,177,11.0,13.2,25,0.00,,---,0.00,VWS V13.01,2013-01-22 16:29:00,
2013-01-22 11:34:00,22.6,-7.9,29.56,SSE,150,6.3,11.0,25,0.00,,---,0.00,VWS V13.01,2013-01-22 16:34:00,
2013-01-22 11:39:00,22.5,-8.0,29.56,SSW,192,12.8,16.3,25,0.00,,---,0.00,VWS V13.01,2013-01-22 16:39:00,
2013-01-22 11:44:00,22.6,-7.9,29.56,SE,126,6.3,15.0,25,0.00,,---,0.00,VWS V13.01,2013-01-22 16:44:00,
2013-01-22 11:49:00,23.2,-8.2,29.56,SSE,162,8.3,15.4,24,0.00,,---,0.00,VWS V13.01,2013-01-22 16:49:00,
2013-01-22 11:54:00,22.8,-7.7,29.56,SSE,159,5.8,10.5,25,0.00,,---,0.00,VWS V13.01,2013-01-22 16:54:00,
2013-01-22 11:59:00,23.4,-8.1,29.56,SSE,167,5.4,10.5,24,0.00,,---,0.00,VWS V13.01,2013-01-22 16:59:00,
2013-01-22 12:04:00,24.4,-7.2,29.56,SSW,193,4.9,11.0,24,0.00,,---,0.00,VWS V13.01,2013-01-22 17:04:00,
2013-01-22 12:09:00,24.6,-7.0,29.56,South,176,8.7,13.2,24,0.00,,---,0.00,VWS V13.01,2013-01-22 17:09:00,
2013-01-22 12:14:00,23.7,-7.8,29.56,South,181,15.0,15.9,24,0.00,,---,0.00,VWS V13.01,2013-01-22 17:14:00,
2013-01-22 12:19:00,23.2,-8.2,29.56,SSW,206,13.2,16.8,24,0.00,,---,0.00,VWS V13.01,2013-01-22 17:19:00,
2013-01-22 12:24:00,23.4,-8.1,29.56,South,181,5.4,17.4,24,0.00,,---,0.00,VWS V13.01,2013-01-22 17:24:00,
2013-01-22 12:29:00,23.9,-7.6,29.53,SSW,193,5.8,17.0,24,0.00,,---,0.00,VWS V13.01,2013-01-22 17:29:00,
2013-01-22 12:34:00,23.7,-7.8,29.53,SSE,157,12.8,14.1,24,0.00,,---,0.00,VWS V13.01,2013-01-22 17:34:00,
2013-01-22 12:39:00,23.7,-7.8,29.53,SSW,203,6.3,22.4,24,0.00,,---,0.00,VWS V13.01,2013-01-22 17:39:00,
2013-01-22 12:44:00,23.9,-7.6,29.56,SSE,148,5.8,13.2,24,0.00,,---,0.00,VWS V13.01,2013-01-22 17:44:00,
2013-01-22 12:49:00,23.5,-7.9,29.56,WNW,296,7.6,16.8,24,0.00,,---,0.00,VWS V13.01,2013-01-22 17:49:00,
2013-01-22 12:59:00,23.4,-8.1,29.53,SW,216,5.8,15.4,24,0.00,,---,0.00,VWS V13.01,2013-01-22 17:59:00,
2013-01-22 13:04:00,23.7,-7.8,29.53,SSE,160,10.1,12.3,24,0.00,,---,0.00,VWS V13.01,2013-01-22 18:04:00,
2013-01-22 13:09:00,25.2,-6.6,29.53,SSE,152,13.2,13.2,24,0.00,,---,0.00,VWS V13.01,2013-01-22 18:09:00,
2013-01-22 13:14:00,24.8,-6.9,29.53,SSE,156,5.8,21.5,24,0.00,,---,0.00,VWS V13.01,2013-01-22 18:14:00,
2013-01-22 13:19:00,25.0,-6.7,29.53,South,172,8.3,12.8,24,0.00,,---,0.00,VWS V13.01,2013-01-22 18:19:00,
2013-01-22 13:24:00,24.6,-7.0,29.53,SW,217,9.2,15.4,24,0.00,,---,0.00,VWS V13.01,2013-01-22 18:24:00,
2013-01-22 13:34:00,22.8,-7.7,29.56,SW,217,8.7,12.3,25,0.00,,---,0.00,VWS V13.01,2013-01-22 18:34:00,
2013-01-22 13:44:00,22.3,-8.2,29.56,South,176,10.5,13.2,25,0.00,,---,0.00,VWS V13.01,2013-01-22 18:44:00,
2013-01-22 13:49:00,22.6,-7.9,29.56,South,183,10.1,10.5,25,0.00,,---,0.00,VWS V13.01,2013-01-22 18:49:00,
2013-01-22 13:54:00,22.1,-8.3,29.56,South,173,8.3,13.2,25,0.00,,---,0.00,VWS V13.01,2013-01-22 18:54:00,
2013-01-22 13:59:00,21.7,-8.6,29.56,SW,231,5.8,21.9,25,0.00,,---,0.00,VWS V13.01,2013-01-22 18:59:00,
2013-01-22 14:04:00,21.0,-9.3,29.56,SSW,202,4.0,15.0,25,0.00,,---,0.00,VWS V13.01,2013-01-22 19:04:00,
2013-01-22 14:09:00,20.5,-9.7,29.56,South,176,4.0,13.6,25,0.00,,---,0.00,VWS V13.01,2013-01-22 19:09:00,
2013-01-22 14:14:00,20.5,-9.7,29.53,SSE,150,6.3,13.2,25,0.00,,---,0.00,VWS V13.01,2013-01-22 19:14:00,
2013-01-22 14:19:00,21.7,-8.6,29.53,South,175,5.4,8.7,25,0.00,,---,0.00,VWS V13.01,2013-01-22 19:19:00,
2013-01-22 14:24:00,23.2,-8.2,29.53,SSW,208,11.4,15.4,24,0.00,,---,0.00,VWS V13.01,2013-01-22 19:24:00,
2013-01-22 14:29:00,23.7,-7.8,29.56,SSE,153,6.7,16.8,24,0.00,,---,0.00,VWS V13.01,2013-01-22 19:29:00,
2013-01-22 14:34:00,24.4,-7.2,29.56,South,169,6.3,12.3,24,0.00,,---,0.00,VWS V13.01,2013-01-22 19:34:00,
2013-01-22 14:44:00,24.6,-7.0,29.56,SSE,167,17.9,17.9,24,0.00,,---,0.00,VWS V13.01,2013-01-22 19:44:00,
2013-01-22 14:49:00,24.4,-7.2,29.56,South,177,10.5,17.9,24,0.00,,---,0.00,VWS V13.01,2013-01-22 19:49:00,
2013-01-22 14:54:00,25.2,-6.6,29.56,SE,145,7.6,14.1,24,0.00,,---,0.00,VWS V13.01,2013-01-22 19:54:00,
2013-01-22 14:59:00,25.3,-6.4,29.56,South,185,6.3,10.5,24,0.00,,---,0.00,VWS V13.01,2013-01-22 19:59:00,
2013-01-22 15:04:00,25.3,-6.4,29.56,South,170,5.8,12.3,24,0.00,,---,0.00,VWS V13.01,2013-01-22 20:04:00,
2013-01-22 15:09:00,24.8,-6.9,29.56,South,182,19.2,19.2,24,0.00,,---,0.00,VWS V13.01,2013-01-22 20:09:00,
2013-01-22 15:14:00,24.1,-7.5,29.59,South,190,12.8,19.2,24,0.00,,---,0.00,VWS V13.01,2013-01-22 20:14:00,
2013-01-22 15:19:00,24.3,-7.3,29.59,SE,140,13.2,14.5,24,0.00,,---,0.00,VWS V13.01,2013-01-22 20:19:00,
2013-01-22 15:24:00,24.1,-7.5,29.59,SSE,166,7.6,16.8,24,0.00,,---,0.00,VWS V13.01,2013-01-22 20:24:00,
2013-01-22 15:29:00,23.7,-7.8,29.59,SSE,160,4.9,13.2,24,0.00,,---,0.00,VWS V13.01,2013-01-22 20:29:00,
2013-01-22 15:39:00,23.5,-7.9,29.59,South,183,5.8,12.8,24,0.00,,---,0.00,VWS V13.01,2013-01-22 20:39:00,
2013-01-22 15:44:00,22.8,-7.7,29.59,SSE,167,8.1,16.8,25,0.00,,---,0.00,VWS V13.01,2013-01-22 20:44:00,
2013-01-22 15:49:00,22.6,-7.9,29.59,SSE,160,5.8,10.5,25,0.00,,---,0.00,VWS V13.01,2013-01-22 20:49:00,
2013-01-22 15:54:00,22.1,-8.3,29.59,South,170,8.1,10.5,25,0.00,,---,0.00,VWS V13.01,2013-01-22 20:54:00,
2013-01-22 15:59:00,21.6,-8.8,29.59,SSW,194,9.6,13.6,25,0.00,,---,0.00,VWS V13.01,2013-01-22 20:59:00,
2013-01-22 16:04:00,21.0,-9.3,29.59,SSW,196,8.1,12.8,25,0.00,,---,0.00,VWS V13.01,2013-01-22 21:04:00,
2013-01-22 16:09:00,20.5,-9.7,29.59,SSE,162,8.3,12.8,25,0.00,,---,0.00,VWS V13.01,2013-01-22 21:09:00,
2013-01-22 16:14:00,20.3,-9.9,29.59,SSW,206,2.7,10.1,25,0.00,,---,0.00,VWS V13.01,2013-01-22 21:14:00,
2013-01-22 16:19:00,20.1,-10.1,29.59,SE,125,6.3,7.6,25,0.00,,---,0.00,VWS V13.01,2013-01-22 21:19:00,
2013-01-22 16:24:00,19.9,-10.2,29.59,SSE,158,12.8,13.2,25,0.00,,---,0.00,VWS V13.01,2013-01-22 21:24:00,
2013-01-22 16:29:00,19.6,-10.5,29.59,SE,130,5.8,12.8,25,0.00,,---,0.00,VWS V13.01,2013-01-22 21:29:00,
2013-01-22 16:34:00,19.4,-10.7,29.59,SSE,150,9.6,12.8,25,0.00,,---,0.00,VWS V13.01,2013-01-22 21:34:00,
2013-01-22 16:39:00,19.2,-10.8,29.59,SW,225,9.6,11.0,25,0.00,,---,0.00,VWS V13.01,2013-01-22 21:39:00,
2013-01-22 16:44:00,19.0,-11.0,29.62,SE,136,2.7,10.5,25,0.00,,---,0.00,VWS V13.01,2013-01-22 21:44:00,
2013-01-22 16:49:00,19.0,-11.0,29.62,SSW,196,4.9,10.1,25,0.00,,---,0.00,VWS V13.01,2013-01-22 21:49:00,
2013-01-22 16:59:00,19.0,-11.0,29.62,South,171,11.0,13.2,25,0.00,,---,0.00,VWS V13.01,2013-01-22 21:59:00,
2013-01-22 17:04:00,19.2,-10.8,29.62,East,99,5.4,11.0,25,0.00,,---,0.00,VWS V13.01,2013-01-22 22:04:00,
2013-01-22 17:09:00,19.2,-10.8,29.62,SE,141,5.8,11.0,25,0.00,,---,0.00,VWS V13.01,2013-01-22 22:09:00,
2013-01-22 17:14:00,19.0,-11.0,29.62,SSE,155,6.3,6.3,25,0.00,,---,0.00,VWS V13.01,2013-01-22 22:14:00,
2013-01-22 17:19:00,18.9,-11.1,29.62,SSE,168,6.3,8.1,25,0.00,,---,0.00,VWS V13.01,2013-01-22 22:19:00,
2013-01-22 17:24:00,18.7,-11.3,29.62,SSE,156,3.6,11.0,25,0.00,,---,0.00,VWS V13.01,2013-01-22 22:24:00,
2013-01-22 17:29:00,18.5,-11.4,29.62,SSE,155,4.9,10.1,25,0.00,,---,0.00,VWS V13.01,2013-01-22 22:29:00,
2013-01-22 17:34:00,18.5,-11.4,29.62,South,190,11.0,11.0,25,0.00,,---,0.00,VWS V13.01,2013-01-22 22:34:00,
2013-01-22 17:39:00,18.3,-11.6,29.62,SE,140,7.2,11.0,25,0.00,,---,0.00,VWS V13.01,2013-01-22 22:39:00,
2013-01-22 17:49:00,18.5,-11.4,29.65,SE,129,6.3,8.7,25,0.00,,---,0.00,VWS V13.01,2013-01-22 22:49:00,
2013-01-22 17:54:00,18.3,-11.6,29.65,South,175,6.3,7.6,25,0.00,,---,0.00,VWS V13.01,2013-01-22 22:54:00,
2013-01-22 17:59:00,18.1,-11.8,29.65,SSE,158,8.1,10.5,25,0.00,,---,0.00,VWS V13.01,2013-01-22 22:59:00,
2013-01-22 18:04:00,18.1,-11.8,29.65,SSW,198,5.4,8.3,25,0.00,,---,0.00,VWS V13.01,2013-01-22 23:04:00,
2013-01-22 18:09:00,18.0,-11.9,29.65,SSW,206,11.0,15.4,25,0.00,,---,0.00,VWS V13.01,2013-01-22 23:09:00,
2013-01-22 18:19:00,17.8,-12.1,29.65,SW,235,5.4,9.2,25,0.00,,---,0.00,VWS V13.01,2013-01-22 23:19:00,
2013-01-22 18:29:00,17.6,-11.4,29.65,SSW,198,4.9,11.0,26,0.00,,---,0.00,VWS V13.01,2013-01-22 23:29:00,
2013-01-22 18:34:00,17.6,-11.4,29.65,South,188,3.6,8.7,26,0.00,,---,0.00,VWS V13.01,2013-01-22 23:34:00,
2013-01-22 18:39:00,17.6,-11.4,29.65,SSW,192,6.3,8.7,26,0.00,,---,0.00,VWS V13.01,2013-01-22 23:39:00,
2013-01-22 18:44:00,17.4,-11.6,29.65,South,170,4.5,6.7,26,0.00,,---,0.00,VWS V13.01,2013-01-22 23:44:00,
2013-01-22 18:49:00,17.4,-11.6,29.65,SSE,159,6.3,11.0,26,0.00,,---,0.00,VWS V13.01,2013-01-22 23:49:00,
2013-01-22 18:54:00,17.4,-11.6,29.65,SSE,167,10.1,10.1,26,0.00,,---,0.00,VWS V13.01,2013-01-22 23:54:00,
2013-01-22 18:59:00,17.2,-11.8,29.65,South,191,4.9,12.3,26,0.00,,---,0.00,VWS V13.01,2013-01-22 23:59:00,
2013-01-22 19:04:00,17.1,-11.9,29.65,SSE,159,8.1,15.4,26,0.00,,---,0.00,VWS V13.01,2013-01-23 00:04:00,
2013-01-22 19:09:00,16.9,-12.1,29.65,South,179,5.4,11.0,26,0.00,,---,0.00,VWS V13.01,2013-01-23 00:09:00,
2013-01-22 19:14:00,16.9,-12.1,29.65,SSE,167,10.1,10.1,26,0.00,,---,0.00,VWS V13.01,2013-01-23 00:14:00,
2013-01-22 19:19:00,16.9,-12.1,29.65,WSW,258,5.4,15.0,26,0.00,,---,0.00,VWS V13.01,2013-01-23 00:19:00,
2013-01-22 19:24:00,16.9,-12.1,29.65,South,176,3.6,12.3,26,0.00,,---,0.00,VWS V13.01,2013-01-23 00:24:00,
2013-01-22 19:29:00,16.9,-12.1,29.65,South,172,3.6,10.5,26,0.00,,---,0.00,VWS V13.01,2013-01-23 00:29:00,
2013-01-22 19:34:00,16.7,-12.2,29.65,SSW,201,3.1,10.1,26,0.00,,---,0.00,VWS V13.01,2013-01-23 00:34:00,
2013-01-22 19:39:00,16.7,-12.2,29.65,SSW,197,8.1,11.9,26,0.00,,---,0.00,VWS V13.01,2013-01-23 00:39:00,
2013-01-22 19:44:00,16.5,-12.4,29.65,SSE,163,8.3,8.7,26,0.00,,---,0.00,VWS V13.01,2013-01-23 00:44:00,
2013-01-22 19:49:00,16.5,-12.4,29.65,SE,130,2.7,8.3,26,0.00,,---,0.00,VWS V13.01,2013-01-23 00:49:00,
2013-01-22 19:54:00,16.3,-12.5,29.65,SSW,210,4.0,13.2,26,0.00,,---,0.00,VWS V13.01,2013-01-23 00:54:00,
2013-01-22 19:59:00,16.3,-12.5,29.65,ENE,63,2.7,14.5,26,0.00,,---,0.00,VWS V13.01,2013-01-23 00:59:00,
2013-01-22 20:04:00,16.2,-12.7,29.65,SSE,158,3.6,10.1,26,0.00,,---,0.00,VWS V13.01,2013-01-23 01:04:00,
2013-01-22 20:09:00,16.0,-12.8,29.65,SSE,165,3.6,8.7,26,0.00,,---,0.00,VWS V13.01,2013-01-23 01:09:00,
2013-01-22 20:14:00,16.0,-12.8,29.65,South,184,4.5,10.1,26,0.00,,---,0.00,VWS V13.01,2013-01-23 01:14:00,
2013-01-22 20:19:00,15.8,-13.0,29.65,WSW,237,4.0,8.3,26,0.00,,---,0.00,VWS V13.01,2013-01-23 01:19:00,
2013-01-22 20:24:00,15.8,-13.0,29.65,East,98,6.3,11.0,26,0.00,,---,0.00,VWS V13.01,2013-01-23 01:24:00,
2013-01-22 20:34:00,15.8,-13.0,29.65,South,189,12.8,12.8,26,0.00,,---,0.00,VWS V13.01,2013-01-23 01:34:00,
2013-01-22 20:39:00,15.6,-13.1,29.65,SSW,193,5.4,12.8,26,0.00,,---,0.00,VWS V13.01,2013-01-23 01:39:00,
2013-01-22 20:44:00,15.6,-13.1,29.65,SSW,193,5.8,6.3,26,0.00,,---,0.00,VWS V13.01,2013-01-23 01:44:00,
2013-01-22 20:49:00,15.4,-13.3,29.65,SSW,192,7.6,10.5,26,0.00,,---,0.00,VWS V13.01,2013-01-23 01:49:00,
2013-01-22 20:54:00,15.4,-13.3,29.65,ESE,119,8.1,8.7,26,0.00,,---,0.00,VWS V13.01,2013-01-23 01:54:00,
2013-01-22 20:59:00,15.4,-13.3,29.65,SW,234,20.6,20.6,26,0.00,,---,0.00,VWS V13.01,2013-01-23 01:59:00,
2013-01-22 21:04:00,15.3,-13.5,29.65,SSE,154,5.4,20.6,26,0.00,,---,0.00,VWS V13.01,2013-01-23 02:04:00,
2013-01-22 21:09:00,15.1,-13.6,29.65,SSE,154,8.7,11.0,26,0.00,,---,0.00,VWS V13.01,2013-01-23 02:09:00,
2013-01-22 21:19:00,14.9,-13.8,29.65,South,177,10.5,15.0,26,0.00,,---,0.00,VWS V13.01,2013-01-23 02:19:00,
2013-01-22 21:24:00,14.9,-13.8,29.65,SSW,212,4.9,13.2,26,0.00,,---,0.00,VWS V13.01,2013-01-23 02:24:00,
2013-01-22 21:29:00,14.5,-14.1,29.65,South,185,5.8,13.2,26,0.00,,---,0.00,VWS V13.01,2013-01-23 02:29:00,
2013-01-22 21:34:00,14.4,-14.2,29.65,South,178,5.8,15.4,26,0.00,,---,0.00,VWS V13.01,2013-01-23 02:34:00,
2013-01-22 21:39:00,14.4,-14.2,29.65,South,175,4.9,13.2,26,0.00,,---,0.00,VWS V13.01,2013-01-23 02:39:00,
2013-01-22 21:44:00,14.4,-14.2,29.65,SSE,156,8.7,13.2,26,0.00,,---,0.00,VWS V13.01,2013-01-23 02:44:00,
2013-01-22 21:49:00,14.2,-14.4,29.65,ESE,103,7.6,13.2,26,0.00,,---,0.00,VWS V13.01,2013-01-23 02:49:00,
2013-01-22 21:54:00,14.0,-13.8,29.65,South,179,6.7,16.3,27,0.00,,---,0.00,VWS V13.01,2013-01-23 02:54:00,
2013-01-22 21:59:00,13.8,-14.0,29.65,South,190,4.0,11.0,27,0.00,,---,0.00,VWS V13.01,2013-01-23 02:59:00,
2013-01-22 22:04:00,13.6,-14.1,29.65,NW,315,7.6,12.8,27,0.00,,---,0.00,VWS V13.01,2013-01-23 03:04:00,
2013-01-22 22:14:00,13.6,-14.1,29.68,SE,130,6.3,12.8,27,0.00,,---,0.00,VWS V13.01,2013-01-23 03:14:00,
2013-01-22 22:19:00,13.6,-14.1,29.68,SSE,155,6.3,15.4,27,0.00,,---,0.00,VWS V13.01,2013-01-23 03:19:00,
2013-01-22 22:24:00,13.6,-14.1,29.68,South,185,7.6,12.3,27,0.00,,---,0.00,VWS V13.01,2013-01-23 03:24:00,
2013-01-22 22:34:00,13.6,-14.1,29.65,SE,133,10.1,10.5,27,0.00,,---,0.00,VWS V13.01,2013-01-23 03:34:00,
2013-01-22 22:39:00,13.5,-14.3,29.65,SSE,168,6.3,15.4,27,0.00,,---,0.00,VWS V13.01,2013-01-23 03:39:00,
2013-01-22 22:44:00,13.5,-14.3,29.65,SSE,159,5.4,11.0,27,0.00,,---,0.00,VWS V13.01,2013-01-23 03:44:00,
2013-01-22 22:49:00,13.3,-14.4,29.65,SSW,195,4.0,9.6,27,0.00,,---,0.00,VWS V13.01,2013-01-23 03:49:00,
2013-01-22 22:54:00,13.3,-14.4,29.65,SSE,167,5.8,11.0,27,0.00,,---,0.00,VWS V13.01,2013-01-23 03:54:00,
2013-01-22 22:59:00,13.3,-14.4,29.68,SW,224,12.8,12.8,27,0.00,,---,0.00,VWS V13.01,2013-01-23 03:59:00,
2013-01-22 23:04:00,13.3,-14.4,29.68,SSE,160,4.0,12.8,27,0.00,,---,0.00,VWS V13.01,2013-01-23 04:04:00,
2013-01-22 23:09:00,13.1,-14.6,29.68,SSW,200,5.8,9.6,27,0.00,,---,0.00,VWS V13.01,2013-01-23 04:09:00,
2013-01-22 23:19:00,12.9,-14.8,29.65,SSW,207,3.6,10.5,27,0.00,,---,0.00,VWS V13.01,2013-01-23 04:19:00,
2013-01-22 23:24:00,12.9,-14.8,29.65,SW,236,7.6,11.4,27,0.00,,---,0.00,VWS V13.01,2013-01-23 04:24:00,
2013-01-22 23:29:00,12.9,-14.8,29.65,South,191,9.6,9.6,27,0.00,,---,0.00,VWS V13.01,2013-01-23 04:29:00,
2013-01-22 23:34:00,12.7,-14.9,29.65,SE,133,4.9,10.1,27,0.00,,---,0.00,VWS V13.01,2013-01-23 04:34:00,
2013-01-22 23:39:00,12.7,-14.9,29.65,SSW,211,5.8,10.1,27,0.00,,---,0.00,VWS V13.01,2013-01-23 04:39:00,
2013-01-22 23:44:00,12.6,-15.1,29.65,SSW,200,3.6,10.5,27,0.00,,---,0.00,VWS V13.01,2013-01-23 04:44:00,
2013-01-22 23:49:00,12.4,-15.2,29.65,South,177,4.9,12.8,27,0.00,,---,0.00,VWS V13.01,2013-01-23 04:49:00,
2013-01-22 23:54:00,12.4,-15.2,29.65,South,180,10.5,13.2,27,0.00,,---,0.00,VWS V13.01,2013-01-23 04:54:00,
2013-01-22 23:59:00,12.2,-15.4,29.65,SSE,159,6.3,13.2,27,0.00,,---,0.00,VWS V13.01,2013-01-23 04:59:00,